Regional Weather Roundup
Issued by NWS State College, PA

Home | Current Version | Previous Version | Text Only | Print | Product List | Glossary On
Versions: 1 2 3 4 5 6 7 8 9 10 11 12 13 14 15 16 17 18 19 20 21 22 23 24 25 26 27 28 29 30 31 32 33 34 35 36 37 38 39 40 41 42 43 44 45 46 47 48 49 50
000
ASUS41 KCTP 260210
RWRCTP

REGIONAL WEATHER ROUNDUP
NATIONAL WEATHER SERVICE STATE COLLEGE PA
1000 PM EDT TUE APR 25 2017

Note: "fair" indicates few or no clouds below 12,000 feet with no
significant weather and/or obstructions to visibility.

* = STATION THAT DOES NOT REPORT PRECIPITATION /E.G. RAIN...SNOW...ETC/
    THUNDER OR FOG.

PAZ002>004-007>009-013>016-020>023-029>032-260300-
WESTERN PENNSYLVANIA

CITY           SKY/WX    TMP DP  RH WIND       PRES   REMARKS
ERIE           CLOUDY    55  49  80 E7        29.80S
MEADVILLE      CLOUDY    60  54  80 VRB3      29.82S
FRANKLIN*      CLOUDY    55  52  88 E7        29.84S
NEW CASTLE     FAIR      57  54  89 E5        29.82S
BEAVER COUNTY  NOT AVBL
BUTLER*        CLOUDY    55  54  94 NE6       29.82S
PITTSBURGH INT CLOUDY    56  54  93 E6        29.80S
PITTSBURGH     CLOUDY    55  51  86 E3        29.80S
INDIANA*       CLOUDY    55  54  94 E6        29.84F
LATROBE        MOCLDY    57  54  88 E7        29.81F
WASHINGTON CO* CLOUDY    54  52  94 NE5       29.81F
$$

PAZ004>006-010>012-017>019-024>028-033>037-041-042-045-046-049>053-260300-
CENTRAL PENNSYLVANIA

CITY           SKY/WX    TMP DP  RH WIND       PRES   REMARKS
BRADFORD       CLOUDY    53  52  96 E6        29.86S
DUBOIS         CLOUDY    54  51  90 E8        29.83F
CLEARFIELD     CLOUDY    54  54 100 NE8       29.84F FOG
JOHNSTOWN      CLOUDY    52  52 100 E6        29.81R FOG
ALTOONA        CLOUDY    55  54  96 NE7       29.82S FOG
STATE COLLEGE  NOT AVBL
WILLIAMSPORT   CLOUDY    57  56  96 CALM      29.84S
SELINSGROVE    CLOUDY    56  55  97 CALM      29.84R
FT INDIANTOWN  CLOUDY    56  56 100 E12G21    29.81R
CAPITAL CITY   CLOUDY    57  54  89 NE7       29.81R
HARRISBURG     DRIZZLE   57  55  93 NE8       29.80R
YORK           CLOUDY    56  56 100 E8        29.79R FOG
$$

PAZ038>040-043-044-047-048-054-055-060>062-067>071-260300-
EASTERN PENNSYLVANIA

CITY           SKY/WX    TMP DP  RH WIND       PRES   REMARKS
SCRANTON       CLOUDY    55  50  83 NE10G18   29.87R
MOUNT POCONO   LGT RAIN  48  48 100 E15       29.89S FOG
ALLENTOWN      LGT RAIN  56  52  86 NE14      29.85F
QUAKERTOWN*    CLOUDY    55  55 100 NE8       29.84F
READING        CLOUDY    57  56  96 N6        29.81S
LANCASTER      CLOUDY    57  56  96 E16       29.79S
COATESVILLE    CLOUDY    54  54 100 NE8       29.81S FOG
POTTSTOWN      CLOUDY    54  53  97 NE13      29.83S
BLUE BELL      CLOUDY    52  52 100 NE10G16   29.82S
DOYLESTOWN     LGT RAIN  53  53 100 NE9G20    29.82F
WILLOW GROVE   NOT AVBL
NORTH PHILA    LGT RAIN  56  54  93 NE15      29.82F
PHILADELPHIA   RAIN      56  54  93 NE17G24   29.79S
$$




USA.gov is the U.S. government's official web portal to all federal, state and local government web resources and services.